Year,Month,Day,Hour,Minute,Value (Times are PST for temperature in C)
2020,12,06,00,00,7.20
2020,12,06,00,01,7.20
2020,12,06,00,02,7.20
2020,12,06,00,03,7.20
2020,12,06,00,04,7.20
2020,12,06,00,05,7.20
2020,12,06,00,06,7.20
2020,12,06,00,07,7.20
2020,12,06,00,08,7.30
2020,12,06,00,09,7.30
2020,12,06,00,10,7.30
2020,12,06,00,11,7.30
2020,12,06,00,12,7.30
2020,12,06,00,13,7.30
2020,12,06,00,14,7.30
2020,12,06,00,15,7.30
2020,12,06,00,16,7.30
2020,12,06,00,17,7.20
2020,12,06,00,18,7.20
2020,12,06,00,19,7.20
2020,12,06,00,20,7.20
2020,12,06,00,21,7.20
2020,12,06,00,22,7.20
2020,12,06,00,23,7.20
2020,12,06,00,24,7.20
2020,12,06,00,25,7.20
2020,12,06,00,26,7.20
2020,12,06,00,27,7.20
2020,12,06,00,28,7.20
2020,12,06,00,29,7.20
2020,12,06,00,30,7.20
2020,12,06,00,31,7.20
2020,12,06,00,32,7.20
2020,12,06,00,33,7.20
2020,12,06,00,34,7.10
2020,12,06,00,35,7.10
2020,12,06,00,36,7.10
2020,12,06,00,37,7.10
2020,12,06,00,38,7.10
2020,12,06,00,39,7.00
2020,12,06,00,40,7.00
2020,12,06,00,41,7.00
2020,12,06,00,42,6.90
2020,12,06,00,43,6.90
2020,12,06,00,44,6.90
2020,12,06,00,45,6.90
2020,12,06,00,46,6.80
2020,12,06,00,47,6.80
2020,12,06,00,48,6.80
2020,12,06,00,49,6.80
2020,12,06,00,50,6.70
2020,12,06,00,51,6.70
2020,12,06,00,52,6.60
2020,12,06,00,53,6.60
2020,12,06,00,54,6.60
2020,12,06,00,55,6.60
2020,12,06,00,56,6.60
2020,12,06,00,57,6.60
2020,12,06,00,58,6.60
2020,12,06,00,59,6.70
2020,12,06,01,00,6.70
2020,12,06,01,01,6.70
2020,12,06,01,02,6.70
2020,12,06,01,03,6.70
2020,12,06,01,04,6.70
2020,12,06,01,05,6.70
2020,12,06,01,06,6.70
2020,12,06,01,07,6.70
2020,12,06,01,08,6.70
2020,12,06,01,09,6.70
2020,12,06,01,10,6.70
2020,12,06,01,11,6.70
2020,12,06,01,12,6.70
2020,12,06,01,13,6.60
2020,12,06,01,14,6.60
2020,12,06,01,15,6.60
2020,12,06,01,16,6.60
2020,12,06,01,17,6.60
2020,12,06,01,18,6.50
2020,12,06,01,19,6.50
2020,12,06,01,20,6.50
2020,12,06,01,21,6.40
2020,12,06,01,22,6.40
2020,12,06,01,23,6.40
2020,12,06,01,24,6.40
2020,12,06,01,25,6.30
2020,12,06,01,26,6.30
2020,12,06,01,27,6.30
2020,12,06,01,28,6.30
2020,12,06,01,29,6.30
2020,12,06,01,30,6.20
2020,12,06,01,31,6.20
2020,12,06,01,32,6.20
2020,12,06,01,33,6.20
2020,12,06,01,34,6.20
2020,12,06,01,35,6.10
2020,12,06,01,36,6.10
2020,12,06,01,37,6.10
2020,12,06,01,38,6.00
2020,12,06,01,39,6.00
2020,12,06,01,40,6.00
2020,12,06,01,41,5.90
2020,12,06,01,42,5.90
2020,12,06,01,43,5.90
2020,12,06,01,44,5.90
2020,12,06,01,45,5.90
2020,12,06,01,46,5.90
2020,12,06,01,47,5.90
2020,12,06,01,48,5.90
2020,12,06,01,49,5.80
2020,12,06,01,50,5.80
2020,12,06,01,51,5.80
2020,12,06,01,52,5.80
2020,12,06,01,53,5.80
2020,12,06,01,54,5.80
2020,12,06,01,55,5.90
2020,12,06,01,56,5.90
2020,12,06,01,57,5.80
2020,12,06,01,58,5.80
2020,12,06,01,59,5.80
2020,12,06,02,00,5.80
2020,12,06,02,01,5.70
2020,12,06,02,02,5.70
2020,12,06,02,03,5.70
2020,12,06,02,04,5.70
2020,12,06,02,05,5.70
2020,12,06,02,06,5.70
2020,12,06,02,07,5.70
2020,12,06,02,08,5.70
2020,12,06,02,09,5.70
2020,12,06,02,10,5.70
2020,12,06,02,11,5.70
2020,12,06,02,12,5.70
2020,12,06,02,13,5.70
2020,12,06,02,14,5.70
2020,12,06,02,15,5.70
2020,12,06,02,16,5.70
2020,12,06,02,17,5.70
2020,12,06,02,18,5.70
2020,12,06,02,19,5.70
2020,12,06,02,20,5.70
2020,12,06,02,21,5.70
2020,12,06,02,22,5.70
2020,12,06,02,23,5.70
2020,12,06,02,24,5.70
2020,12,06,02,25,5.70
2020,12,06,02,26,5.70
2020,12,06,02,27,5.70
2020,12,06,02,28,5.70
2020,12,06,02,29,5.60
2020,12,06,02,30,5.60
2020,12,06,02,31,5.60
2020,12,06,02,32,5.60
2020,12,06,02,33,5.60
2020,12,06,02,34,5.50
2020,12,06,02,35,5.50
2020,12,06,02,36,5.40
2020,12,06,02,37,5.40
2020,12,06,02,38,5.40
2020,12,06,02,39,5.40
2020,12,06,02,40,5.40
2020,12,06,02,41,5.40
2020,12,06,02,42,5.40
2020,12,06,02,43,5.40
2020,12,06,02,44,5.40
2020,12,06,02,45,5.40
2020,12,06,02,46,5.40
2020,12,06,02,47,5.40
2020,12,06,02,48,5.40
2020,12,06,02,49,5.40
2020,12,06,02,50,5.50
2020,12,06,02,51,5.50
2020,12,06,02,52,5.50
2020,12,06,02,53,5.50
2020,12,06,02,54,5.50
2020,12,06,02,55,5.50
2020,12,06,02,56,5.50
2020,12,06,02,57,5.50
2020,12,06,02,58,5.50
2020,12,06,02,59,5.50
2020,12,06,03,00,5.50
2020,12,06,03,01,5.60
2020,12,06,03,02,5.60
2020,12,06,03,03,5.60
2020,12,06,03,04,5.60
2020,12,06,03,05,5.60
2020,12,06,03,06,5.60
2020,12,06,03,07,5.60
2020,12,06,03,08,5.60
2020,12,06,03,09,5.60
2020,12,06,03,10,5.60
2020,12,06,03,11,5.60
2020,12,06,03,12,5.60
2020,12,06,03,13,5.60
2020,12,06,03,14,5.60
2020,12,06,03,15,5.60
2020,12,06,03,16,5.60
2020,12,06,03,17,5.60
2020,12,06,03,18,5.60
2020,12,06,03,19,5.70
2020,12,06,03,20,5.70
2020,12,06,03,21,5.70
2020,12,06,03,22,5.70
2020,12,06,03,23,5.70
2020,12,06,03,24,5.70
2020,12,06,03,25,5.70
2020,12,06,03,26,5.70
2020,12,06,03,27,5.70
2020,12,06,03,28,5.70
2020,12,06,03,29,5.70
2020,12,06,03,30,5.70
2020,12,06,03,31,5.60
2020,12,06,03,32,5.60
2020,12,06,03,33,5.60
2020,12,06,03,34,5.60
2020,12,06,03,35,5.60
2020,12,06,03,36,5.60
2020,12,06,03,37,5.60
2020,12,06,03,38,5.60
2020,12,06,03,39,5.60
2020,12,06,03,40,5.60
2020,12,06,03,41,5.60
2020,12,06,03,42,5.60
2020,12,06,03,43,5.60
2020,12,06,03,44,5.60
2020,12,06,03,45,5.60
2020,12,06,03,46,5.60
2020,12,06,03,47,5.60
2020,12,06,03,48,5.60
2020,12,06,03,49,5.70
2020,12,06,03,50,5.70
2020,12,06,03,51,5.70
2020,12,06,03,52,5.80
2020,12,06,03,53,5.80
2020,12,06,03,54,5.90
2020,12,06,03,55,6.00
2020,12,06,03,56,6.10
2020,12,06,03,57,6.20
2020,12,06,03,58,6.30
2020,12,06,03,59,6.40
2020,12,06,04,00,6.50
2020,12,06,04,01,6.50
2020,12,06,04,02,6.60
2020,12,06,04,03,6.70
2020,12,06,04,04,6.70
2020,12,06,04,05,6.80
2020,12,06,04,06,6.80
2020,12,06,04,07,6.80
2020,12,06,04,08,6.80
2020,12,06,04,09,6.90
2020,12,06,04,10,6.90
2020,12,06,04,11,6.90
2020,12,06,04,12,6.90
2020,12,06,04,13,6.90
2020,12,06,04,14,6.90
2020,12,06,04,15,6.90
2020,12,06,04,16,6.90
2020,12,06,04,17,6.90
2020,12,06,04,18,6.90
2020,12,06,04,19,6.90
2020,12,06,04,20,6.90
2020,12,06,04,21,6.90
2020,12,06,04,22,6.90
2020,12,06,04,23,6.90
2020,12,06,04,24,6.90
2020,12,06,04,25,6.90
2020,12,06,04,26,6.90
2020,12,06,04,27,6.90
2020,12,06,04,28,6.90
2020,12,06,04,29,6.90
2020,12,06,04,30,6.90
2020,12,06,04,31,6.90
2020,12,06,04,32,6.90
2020,12,06,04,33,6.90
2020,12,06,04,34,6.90
2020,12,06,04,35,6.90
2020,12,06,04,36,6.90
2020,12,06,04,37,6.90
2020,12,06,04,38,6.90
2020,12,06,04,39,6.90
2020,12,06,04,40,6.80
2020,12,06,04,41,6.80
2020,12,06,04,42,6.80
2020,12,06,04,43,6.80
2020,12,06,04,44,6.80
2020,12,06,04,45,6.80
2020,12,06,04,46,6.80
2020,12,06,04,47,6.80
2020,12,06,04,48,6.80
2020,12,06,04,49,6.80
2020,12,06,04,50,6.80
2020,12,06,04,51,6.80
2020,12,06,04,52,6.80
2020,12,06,04,53,6.80
2020,12,06,04,54,6.80
2020,12,06,04,55,6.80
2020,12,06,04,56,6.80
2020,12,06,04,57,6.70
2020,12,06,04,58,6.70
2020,12,06,04,59,6.70
2020,12,06,05,00,6.70
2020,12,06,05,01,6.70
2020,12,06,05,02,6.70
2020,12,06,05,03,6.70
2020,12,06,05,04,6.70
2020,12,06,05,05,6.70
2020,12,06,05,06,6.70
2020,12,06,05,07,6.70
2020,12,06,05,08,6.70
2020,12,06,05,09,6.70
2020,12,06,05,10,6.70
2020,12,06,05,11,6.70
2020,12,06,05,12,6.70
2020,12,06,05,13,6.60
2020,12,06,05,14,6.60
2020,12,06,05,15,6.60
2020,12,06,05,16,6.60
2020,12,06,05,17,6.60
2020,12,06,05,18,6.60
2020,12,06,05,19,6.60
2020,12,06,05,20,6.60
2020,12,06,05,21,6.60
2020,12,06,05,22,6.50
2020,12,06,05,23,6.50
2020,12,06,05,24,6.50
2020,12,06,05,25,6.50
2020,12,06,05,26,6.50
2020,12,06,05,27,6.50
2020,12,06,05,28,6.50
2020,12,06,05,29,6.50
2020,12,06,05,30,6.50
2020,12,06,05,31,6.50
2020,12,06,05,32,6.50
2020,12,06,05,33,6.50
2020,12,06,05,34,6.50
2020,12,06,05,35,6.50
2020,12,06,05,36,6.50
2020,12,06,05,37,6.50
2020,12,06,05,38,6.50
2020,12,06,05,39,6.40
2020,12,06,05,40,6.40
2020,12,06,05,41,6.40
2020,12,06,05,42,6.40
2020,12,06,05,43,6.40
2020,12,06,05,44,6.40
2020,12,06,05,45,6.40
2020,12,06,05,46,6.40
2020,12,06,05,47,6.40
2020,12,06,05,48,6.40
2020,12,06,05,49,6.40
2020,12,06,05,50,6.40
2020,12,06,05,51,6.40
2020,12,06,08,06,6.60
2020,12,06,08,07,6.60
2020,12,06,08,08,6.60
2020,12,06,08,09,6.60
2020,12,06,08,10,6.70
2020,12,06,08,11,6.70
2020,12,06,08,12,6.70
2020,12,06,08,13,6.60
2020,12,06,08,14,6.60
2020,12,06,08,15,6.60
2020,12,06,08,16,6.50
2020,12,06,08,17,6.50
2020,12,06,08,18,6.40
2020,12,06,08,19,6.30
2020,12,06,08,20,6.30
2020,12,06,08,21,6.30
2020,12,06,08,22,6.30
2020,12,06,08,23,6.30
2020,12,06,08,24,6.30
2020,12,06,08,25,6.30
2020,12,06,08,26,6.30
2020,12,06,08,27,6.40
2020,12,06,08,28,6.50
2020,12,06,08,29,6.70
2020,12,06,08,30,7.00
2020,12,06,08,31,7.10
2020,12,06,08,32,7.00
2020,12,06,08,33,6.90
2020,12,06,08,34,6.80
2020,12,06,08,35,6.80
2020,12,06,08,36,6.80
2020,12,06,08,37,6.80
2020,12,06,08,38,7.00
2020,12,06,08,39,7.10
2020,12,06,08,40,7.20
2020,12,06,08,41,7.30
2020,12,06,08,42,7.30
2020,12,06,08,43,7.30
2020,12,06,08,44,7.30
2020,12,06,08,45,7.30
2020,12,06,08,46,7.30
2020,12,06,08,47,7.30
2020,12,06,08,48,7.30
2020,12,06,08,49,7.30
2020,12,06,08,50,7.30
2020,12,06,08,51,7.30
2020,12,06,08,52,7.30
2020,12,06,08,53,7.30
2020,12,06,08,54,7.40
2020,12,06,08,55,7.40
2020,12,06,08,56,7.50
2020,12,06,08,57,7.50
2020,12,06,08,58,7.60
2020,12,06,08,59,7.60
2020,12,06,09,00,7.70
2020,12,06,09,01,7.70
2020,12,06,09,02,7.70
2020,12,06,09,03,7.70
2020,12,06,09,04,7.80
2020,12,06,09,05,7.80
2020,12,06,09,06,7.80
2020,12,06,09,07,7.80
2020,12,06,09,08,7.80
2020,12,06,09,09,7.80
2020,12,06,09,10,7.90
2020,12,06,09,11,7.90
2020,12,06,09,12,7.90
2020,12,06,09,13,7.90
2020,12,06,09,14,7.90
2020,12,06,09,15,7.90
2020,12,06,09,16,7.90
2020,12,06,09,17,8.00
2020,12,06,09,18,8.00
2020,12,06,09,19,8.00
2020,12,06,09,20,8.00
2020,12,06,09,21,8.00
2020,12,06,09,22,8.00
2020,12,06,09,23,8.00
2020,12,06,09,24,8.00
2020,12,06,09,25,8.00
2020,12,06,09,26,8.00
2020,12,06,09,27,8.00
2020,12,06,09,28,8.00
2020,12,06,09,29,8.00
2020,12,06,09,30,8.00
2020,12,06,09,31,8.00
2020,12,06,09,32,8.00
2020,12,06,09,33,8.00
2020,12,06,09,34,8.00
2020,12,06,09,35,8.00
2020,12,06,09,36,8.00
2020,12,06,09,37,8.00
2020,12,06,09,38,8.10
2020,12,06,09,39,8.10
2020,12,06,09,40,8.10
2020,12,06,09,41,8.10
2020,12,06,09,42,8.10
2020,12,06,09,43,8.20
2020,12,06,09,44,8.20
2020,12,06,09,45,8.20
2020,12,06,09,46,8.20
2020,12,06,09,47,8.20
2020,12,06,09,48,8.30
2020,12,06,09,49,8.30
2020,12,06,09,50,8.30
2020,12,06,09,51,8.30
2020,12,06,09,52,8.30
2020,12,06,09,53,8.30
2020,12,06,09,54,8.30
2020,12,06,09,55,8.40
2020,12,06,09,56,8.40
2020,12,06,09,57,8.40
2020,12,06,09,58,8.40
2020,12,06,09,59,8.40
2020,12,06,10,00,8.50
2020,12,06,10,01,8.50
2020,12,06,10,02,8.50
2020,12,06,10,03,8.50
2020,12,06,10,04,8.50
2020,12,06,10,05,8.50
2020,12,06,10,06,8.60
2020,12,06,10,07,8.60
2020,12,06,10,08,8.60
2020,12,06,10,09,8.60
2020,12,06,10,10,8.60
2020,12,06,10,11,8.60
2020,12,06,10,12,8.60
2020,12,06,10,13,8.70
2020,12,06,10,14,8.70
2020,12,06,10,15,8.70
2020,12,06,10,16,8.70
2020,12,06,10,17,8.70
2020,12,06,10,18,8.70
2020,12,06,10,19,8.70
2020,12,06,10,20,8.70
2020,12,06,10,21,8.70
2020,12,06,10,22,8.70
2020,12,06,10,23,8.70
2020,12,06,10,24,8.70
2020,12,06,10,25,8.70
2020,12,06,10,26,8.80
2020,12,06,10,27,8.80
2020,12,06,10,28,8.80
2020,12,06,10,29,8.80
2020,12,06,10,30,8.80
2020,12,06,10,31,8.80
2020,12,06,10,32,8.80
2020,12,06,10,33,8.80
2020,12,06,10,34,8.80
2020,12,06,10,35,8.80
2020,12,06,10,36,8.80
2020,12,06,10,37,8.80
2020,12,06,10,38,8.80
2020,12,06,10,39,8.90
2020,12,06,10,40,8.90
2020,12,06,10,41,8.90
2020,12,06,10,42,8.90
2020,12,06,10,43,8.90
2020,12,06,10,44,8.90
2020,12,06,10,45,8.90
2020,12,06,10,46,8.90
2020,12,06,10,47,8.90
2020,12,06,10,48,8.90
2020,12,06,10,49,8.90
2020,12,06,10,50,8.90
2020,12,06,10,51,8.90
2020,12,06,10,52,9.00
2020,12,06,10,53,8.90
2020,12,06,10,54,8.90
2020,12,06,10,55,8.90
2020,12,06,10,56,8.90
2020,12,06,10,57,9.00
2020,12,06,10,58,9.00
2020,12,06,10,59,9.00
2020,12,06,11,00,9.00
2020,12,06,11,01,9.10
2020,12,06,11,02,9.10
2020,12,06,11,03,9.10
2020,12,06,11,04,9.10
2020,12,06,11,05,9.10
2020,12,06,11,06,9.10
2020,12,06,11,07,9.10
2020,12,06,11,08,9.20
2020,12,06,11,09,9.20
2020,12,06,11,10,9.20
2020,12,06,11,11,9.20
2020,12,06,11,12,9.20
2020,12,06,11,13,9.20
2020,12,06,11,14,9.20
2020,12,06,11,15,9.20
2020,12,06,11,16,9.20
2020,12,06,11,17,9.20
2020,12,06,11,18,9.20
2020,12,06,11,19,9.20
2020,12,06,11,20,9.20
2020,12,06,11,21,9.20
2020,12,06,11,22,9.20
2020,12,06,11,23,9.20
2020,12,06,11,24,9.20
2020,12,06,11,25,9.20
2020,12,06,11,26,9.20
2020,12,06,11,27,9.20
2020,12,06,11,28,9.20
2020,12,06,11,29,9.20
2020,12,06,11,30,9.20
2020,12,06,11,31,9.20
2020,12,06,11,32,9.20
2020,12,06,11,33,9.20
2020,12,06,11,34,9.20
2020,12,06,11,35,9.20
2020,12,06,11,36,9.20
2020,12,06,11,37,9.10
2020,12,06,11,38,9.20
2020,12,06,11,39,9.10
2020,12,06,11,40,9.20
2020,12,06,11,41,9.10
2020,12,06,11,42,9.10
2020,12,06,11,43,9.10
2020,12,06,11,44,9.20
2020,12,06,11,45,9.10
2020,12,06,11,46,9.20
2020,12,06,11,47,9.20
2020,12,06,11,48,9.20
2020,12,06,11,49,9.20
2020,12,06,11,50,9.20
2020,12,06,11,51,9.20
2020,12,06,11,52,9.20
2020,12,06,11,53,9.20
2020,12,06,11,54,9.20
2020,12,06,11,55,9.20
2020,12,06,11,56,9.20
2020,12,06,11,57,9.20
2020,12,06,11,58,9.20
2020,12,06,11,59,9.20
2020,12,06,12,00,9.20
2020,12,06,12,01,9.20
2020,12,06,12,02,9.20
2020,12,06,12,03,9.30
2020,12,06,12,04,9.30
2020,12,06,12,05,9.30
2020,12,06,12,06,9.30
2020,12,06,12,07,9.30
2020,12,06,12,08,9.40
2020,12,06,12,09,9.30
2020,12,06,12,10,9.30
2020,12,06,12,11,9.30
2020,12,06,12,12,9.40
2020,12,06,12,13,9.40
2020,12,06,12,14,9.40
2020,12,06,12,15,9.40
2020,12,06,12,16,9.40
2020,12,06,12,17,9.40
2020,12,06,12,18,9.40
2020,12,06,12,19,9.40
2020,12,06,12,20,9.40
2020,12,06,12,21,9.50
2020,12,06,12,22,9.50
2020,12,06,12,23,9.50
2020,12,06,12,24,9.50
2020,12,06,12,25,9.60
2020,12,06,12,26,9.60
2020,12,06,12,27,9.60
2020,12,06,12,28,9.60
2020,12,06,12,29,9.60
2020,12,06,12,30,9.60
2020,12,06,12,31,9.60
2020,12,06,12,32,9.60
2020,12,06,12,33,9.60
2020,12,06,12,34,9.50
2020,12,06,12,35,9.50
2020,12,06,12,36,9.50
2020,12,06,12,37,9.50
2020,12,06,12,38,9.50
2020,12,06,12,39,9.50
2020,12,06,12,40,9.50
2020,12,06,12,41,9.50
2020,12,06,12,42,9.60
2020,12,06,12,43,9.60
2020,12,06,12,44,9.60
2020,12,06,12,45,9.70
2020,12,06,12,46,9.70
2020,12,06,12,47,9.70
2020,12,06,12,48,9.70
2020,12,06,12,49,9.70
2020,12,06,12,50,9.70
2020,12,06,12,51,9.80
2020,12,06,12,52,9.80
2020,12,06,12,53,9.80
2020,12,06,12,54,9.80
2020,12,06,12,55,9.80
2020,12,06,12,56,9.80
2020,12,06,12,57,9.90
2020,12,06,12,58,9.90
2020,12,06,12,59,9.90
2020,12,06,13,00,9.90
2020,12,06,13,01,9.90
2020,12,06,13,02,9.90
2020,12,06,13,03,9.90
2020,12,06,13,04,10.00
2020,12,06,13,05,10.00
2020,12,06,13,06,10.00
2020,12,06,13,07,10.10
2020,12,06,13,08,10.10
2020,12,06,13,09,10.10
2020,12,06,13,10,10.20
2020,12,06,13,11,10.10
2020,12,06,13,12,10.10
2020,12,06,13,13,10.10
2020,12,06,13,14,10.10
2020,12,06,13,15,10.10
2020,12,06,13,16,10.10
2020,12,06,13,17,10.10
2020,12,06,13,18,10.20
2020,12,06,13,19,10.20
2020,12,06,13,20,10.20
2020,12,06,13,21,10.10
2020,12,06,13,22,10.10
2020,12,06,13,23,10.10
2020,12,06,13,24,10.10
2020,12,06,13,25,10.10
2020,12,06,13,26,10.10
2020,12,06,13,27,10.10
2020,12,06,13,28,10.10
2020,12,06,13,29,10.10
2020,12,06,13,30,10.00
2020,12,06,13,31,10.00
2020,12,06,13,32,10.00
2020,12,06,13,33,10.00
2020,12,06,13,34,10.00
2020,12,06,13,35,10.00
2020,12,06,13,36,10.00
2020,12,06,13,37,10.00
2020,12,06,13,38,10.00
2020,12,06,13,39,10.00
2020,12,06,13,40,9.90
2020,12,06,13,41,9.90
2020,12,06,13,42,9.90
2020,12,06,13,43,9.90
2020,12,06,13,44,9.90
2020,12,06,13,45,9.80
2020,12,06,13,46,9.80
2020,12,06,13,47,9.80
2020,12,06,13,48,9.80
2020,12,06,13,49,9.80
2020,12,06,13,50,9.80
2020,12,06,13,51,9.80
2020,12,06,13,52,9.80
2020,12,06,13,53,9.80
2020,12,06,13,54,9.80
2020,12,06,13,55,9.80
2020,12,06,13,56,9.80
2020,12,06,13,57,9.80
2020,12,06,13,58,9.80
2020,12,06,13,59,9.80
2020,12,06,14,00,9.80
2020,12,06,14,01,9.80
2020,12,06,14,02,9.80
2020,12,06,14,03,9.80
2020,12,06,14,04,9.80
2020,12,06,14,05,9.80
2020,12,06,14,06,9.80
2020,12,06,14,07,9.80
2020,12,06,14,08,9.80
2020,12,06,14,09,9.70
2020,12,06,14,10,9.70
2020,12,06,14,11,9.70
2020,12,06,14,12,9.70
2020,12,06,14,13,9.70
2020,12,06,14,14,9.70
2020,12,06,14,15,9.70
2020,12,06,14,16,9.60
2020,12,06,14,17,9.60
2020,12,06,14,18,9.60
2020,12,06,14,19,9.60
2020,12,06,14,20,9.60
2020,12,06,14,21,9.60
2020,12,06,14,22,9.60
2020,12,06,14,23,9.60
2020,12,06,14,24,9.60
2020,12,06,14,25,9.70
2020,12,06,14,26,9.70
2020,12,06,14,27,9.70
2020,12,06,14,28,9.70
2020,12,06,14,29,9.70
2020,12,06,14,30,9.70
2020,12,06,14,31,9.70
2020,12,06,14,32,9.70
2020,12,06,14,33,9.70
2020,12,06,14,34,9.80
2020,12,06,14,35,9.80
2020,12,06,14,36,9.80
2020,12,06,14,37,9.80
2020,12,06,14,38,9.80
2020,12,06,14,39,9.80
2020,12,06,14,40,9.80
2020,12,06,14,41,9.80
2020,12,06,14,42,9.70
2020,12,06,14,43,9.70
2020,12,06,14,44,9.70
2020,12,06,14,45,9.70
2020,12,06,14,46,9.70
2020,12,06,14,47,9.70
2020,12,06,14,48,9.70
2020,12,06,14,49,9.70
2020,12,06,14,50,9.70
2020,12,06,14,51,9.70
2020,12,06,14,52,9.60
2020,12,06,14,53,9.60
2020,12,06,14,54,9.60
2020,12,06,14,55,9.60
2020,12,06,14,56,9.60
2020,12,06,14,57,9.60
2020,12,06,14,58,9.50
2020,12,06,14,59,9.50
2020,12,06,15,00,9.50
2020,12,06,15,01,9.50
2020,12,06,15,02,9.50
2020,12,06,15,03,9.50
2020,12,06,15,04,9.50
2020,12,06,15,05,9.50
2020,12,06,15,06,9.50
2020,12,06,15,07,9.50
2020,12,06,15,08,9.50
2020,12,06,15,09,9.50
2020,12,06,15,10,9.40
2020,12,06,15,11,9.40
2020,12,06,15,12,9.40
2020,12,06,15,13,9.40
2020,12,06,15,14,9.40
2020,12,06,15,15,9.40
2020,12,06,15,16,9.40
2020,12,06,15,17,9.40
2020,12,06,15,18,9.40
2020,12,06,15,19,9.40
2020,12,06,15,20,9.40
2020,12,06,15,21,9.40
2020,12,06,15,22,9.40
2020,12,06,15,23,9.40
2020,12,06,15,24,9.40
2020,12,06,15,25,9.40
2020,12,06,15,26,9.40
2020,12,06,15,27,9.40
2020,12,06,15,28,9.40
2020,12,06,15,29,9.40
2020,12,06,15,30,9.50
2020,12,06,15,31,9.50
2020,12,06,15,32,9.50
2020,12,06,15,33,9.50
2020,12,06,15,34,9.50
2020,12,06,15,35,9.50
2020,12,06,15,36,9.50
2020,12,06,15,37,9.50
2020,12,06,15,38,9.50
2020,12,06,15,39,9.50
2020,12,06,15,40,9.50
2020,12,06,15,41,9.50
2020,12,06,15,42,9.50
2020,12,06,15,43,9.50
2020,12,06,15,44,9.50
2020,12,06,15,45,9.50
2020,12,06,15,46,9.50
2020,12,06,15,47,9.50
2020,12,06,15,48,9.50
2020,12,06,15,49,9.50
2020,12,06,15,50,9.50
2020,12,06,15,51,9.50
2020,12,06,15,52,9.50
2020,12,06,15,53,9.50
2020,12,06,15,54,9.50
2020,12,06,15,55,9.50
2020,12,06,15,56,9.50
2020,12,06,15,57,9.50
2020,12,06,15,58,9.50
2020,12,06,15,59,9.50
2020,12,06,16,00,9.50
2020,12,06,16,01,9.50
2020,12,06,16,02,9.50
2020,12,06,16,03,9.50
2020,12,06,16,04,9.50
2020,12,06,16,05,9.50
2020,12,06,16,06,9.50
2020,12,06,16,07,9.50
2020,12,06,16,08,9.50
2020,12,06,16,09,9.50
2020,12,06,16,10,9.50
2020,12,06,16,11,9.50
2020,12,06,16,12,9.50
2020,12,06,16,13,9.50
2020,12,06,16,14,9.50
2020,12,06,16,15,9.50
2020,12,06,16,16,9.50
2020,12,06,16,17,9.50
2020,12,06,16,18,9.50
2020,12,06,16,19,9.50
2020,12,06,16,20,9.50
2020,12,06,16,21,9.50
2020,12,06,16,22,9.50
2020,12,06,16,23,9.50
2020,12,06,16,24,9.40
2020,12,06,16,25,9.40
2020,12,06,16,26,9.40
2020,12,06,16,27,9.50
2020,12,06,16,28,9.50
2020,12,06,16,29,9.50
2020,12,06,16,30,9.50
2020,12,06,16,31,9.50
2020,12,06,16,32,9.50
2020,12,06,16,33,9.50
2020,12,06,16,34,9.50
2020,12,06,16,35,9.50
2020,12,06,16,36,9.50
2020,12,06,16,37,9.50
2020,12,06,16,38,9.50
2020,12,06,16,39,9.50
2020,12,06,16,40,9.50
2020,12,06,16,41,9.40
2020,12,06,16,42,9.40
2020,12,06,16,43,9.40
2020,12,06,16,44,9.40
2020,12,06,16,45,9.40
2020,12,06,16,46,9.40
2020,12,06,16,47,9.40
2020,12,06,16,48,9.40
2020,12,06,16,49,9.40
2020,12,06,16,50,9.40
2020,12,06,16,51,9.40
2020,12,06,16,52,9.40
2020,12,06,16,53,9.40
2020,12,06,16,54,9.40
2020,12,06,16,55,9.40
2020,12,06,16,56,9.40
2020,12,06,16,57,9.40
2020,12,06,16,58,9.40
2020,12,06,16,59,9.40
2020,12,06,17,00,9.40
2020,12,06,17,01,9.40
2020,12,06,17,02,9.40
2020,12,06,17,03,9.30
2020,12,06,17,04,9.40
2020,12,06,17,05,9.30
2020,12,06,17,06,9.30
2020,12,06,17,07,9.30
2020,12,06,17,08,9.30
2020,12,06,17,09,9.30
2020,12,06,17,10,9.30
2020,12,06,17,11,9.30
2020,12,06,17,12,9.30
2020,12,06,17,13,9.30
2020,12,06,17,14,9.30
2020,12,06,17,15,9.30
2020,12,06,17,16,9.30
2020,12,06,17,17,9.20
2020,12,06,17,18,9.20
2020,12,06,17,19,9.20
2020,12,06,17,20,9.20
2020,12,06,17,21,9.20
2020,12,06,17,22,9.20
2020,12,06,17,23,9.20
2020,12,06,17,24,9.20
2020,12,06,17,25,9.20
2020,12,06,17,26,9.20
2020,12,06,17,27,9.20
2020,12,06,17,28,9.20
2020,12,06,17,29,9.20
2020,12,06,17,30,9.20
2020,12,06,17,31,9.20
2020,12,06,17,32,9.10
2020,12,06,17,33,9.10
2020,12,06,17,34,9.10
2020,12,06,17,35,9.10
2020,12,06,17,36,9.10
2020,12,06,17,37,9.10
2020,12,06,17,38,9.10
2020,12,06,17,39,9.10
2020,12,06,17,40,9.10
2020,12,06,17,41,9.10
2020,12,06,17,42,9.10
2020,12,06,17,43,9.10
2020,12,06,17,44,9.10
2020,12,06,17,45,9.10
2020,12,06,17,46,9.10
2020,12,06,17,47,9.10
2020,12,06,17,48,9.00
2020,12,06,17,49,9.00
2020,12,06,17,50,9.00
2020,12,06,17,51,9.00
2020,12,06,17,52,9.00
2020,12,06,17,53,9.00
2020,12,06,17,54,8.90
2020,12,06,17,55,8.90
2020,12,06,17,56,8.90
2020,12,06,17,57,8.90
2020,12,06,17,58,8.90
2020,12,06,17,59,8.90
2020,12,06,18,00,8.80
2020,12,06,18,01,8.80
2020,12,06,18,02,8.80
2020,12,06,18,03,8.80
2020,12,06,18,04,8.80
2020,12,06,18,05,8.80
2020,12,06,18,06,8.80
2020,12,06,18,07,8.80
2020,12,06,18,08,8.80
2020,12,06,18,09,8.80
2020,12,06,18,10,8.80
2020,12,06,18,11,8.80
2020,12,06,18,12,8.80
2020,12,06,18,13,8.80
2020,12,06,18,14,8.80
2020,12,06,18,15,8.80
2020,12,06,18,16,8.80
2020,12,06,18,17,8.80
2020,12,06,18,18,8.80
2020,12,06,18,19,8.80
2020,12,06,18,20,8.80
2020,12,06,18,21,8.80
2020,12,06,18,22,8.80
2020,12,06,18,23,8.70
2020,12,06,18,24,8.70
2020,12,06,18,25,8.60
2020,12,06,18,26,8.60
2020,12,06,18,27,8.60
2020,12,06,18,28,8.60
2020,12,06,18,29,8.60
2020,12,06,18,30,8.50
2020,12,06,18,31,8.60
2020,12,06,18,32,8.60
2020,12,06,18,33,8.60
2020,12,06,18,34,8.60
2020,12,06,18,35,8.50
2020,12,06,18,36,8.50
2020,12,06,18,37,8.50
2020,12,06,18,38,8.50
2020,12,06,18,39,8.50
2020,12,06,18,40,8.50
2020,12,06,18,41,8.40
2020,12,06,18,42,8.40
2020,12,06,18,43,8.40
2020,12,06,18,44,8.40
2020,12,06,18,45,8.40
2020,12,06,18,46,8.40
2020,12,06,18,47,8.40
2020,12,06,18,48,8.40
2020,12,06,18,49,8.40
2020,12,06,18,50,8.40
2020,12,06,18,51,8.40
2020,12,06,18,52,8.40
2020,12,06,18,53,8.30
2020,12,06,18,54,8.30
2020,12,06,18,55,8.30
2020,12,06,18,56,8.30
2020,12,06,18,57,8.30
2020,12,06,18,58,8.30
2020,12,06,18,59,8.30
2020,12,06,19,00,8.30
2020,12,06,19,01,8.30
2020,12,06,19,02,8.30
2020,12,06,19,03,8.30
2020,12,06,19,04,8.20
2020,12,06,19,05,8.20
2020,12,06,19,06,8.20
2020,12,06,19,07,8.20
2020,12,06,19,08,8.20
2020,12,06,19,09,8.20
2020,12,06,19,10,8.20
2020,12,06,19,11,8.20
2020,12,06,19,12,8.20
2020,12,06,19,13,8.20
2020,12,06,19,14,8.20
2020,12,06,19,15,8.10
2020,12,06,19,16,8.10
2020,12,06,19,17,8.10
2020,12,06,19,18,8.10
2020,12,06,19,19,8.00
2020,12,06,19,20,8.00
2020,12,06,19,21,8.00
2020,12,06,19,22,7.90
2020,12,06,19,23,7.90
2020,12,06,19,24,7.90
2020,12,06,19,25,7.90
2020,12,06,19,26,7.80
2020,12,06,19,27,7.80
2020,12,06,19,28,7.80
2020,12,06,19,29,7.80
2020,12,06,19,30,7.80
2020,12,06,19,31,7.80
2020,12,06,19,32,7.80
2020,12,06,19,33,7.80
2020,12,06,19,34,7.80
2020,12,06,19,35,7.80
2020,12,06,19,36,7.80
2020,12,06,19,37,7.80
2020,12,06,19,38,7.80
2020,12,06,19,39,7.80
2020,12,06,19,40,7.80
2020,12,06,19,41,7.80
2020,12,06,19,42,7.80
2020,12,06,19,43,7.80
2020,12,06,19,44,7.80
2020,12,06,19,45,7.80
2020,12,06,19,46,7.90
2020,12,06,19,47,7.90
2020,12,06,19,48,7.90
2020,12,06,19,49,7.90
2020,12,06,19,50,7.90
2020,12,06,19,51,7.90
2020,12,06,19,52,8.00
2020,12,06,19,53,8.00
2020,12,06,19,54,8.00
2020,12,06,19,55,7.90
2020,12,06,19,56,7.90
2020,12,06,19,57,7.90
2020,12,06,19,58,7.90
2020,12,06,19,59,7.80
2020,12,06,20,00,7.80
2020,12,06,20,01,7.80
2020,12,06,20,02,7.80
2020,12,06,20,03,7.80
2020,12,06,20,04,7.70
2020,12,06,20,05,7.70
2020,12,06,20,06,7.70
2020,12,06,20,07,7.70
2020,12,06,20,08,7.60
2020,12,06,20,09,7.60
2020,12,06,20,10,7.50
2020,12,06,20,11,7.50
2020,12,06,20,12,7.40
2020,12,06,20,13,7.40
2020,12,06,20,14,7.40
2020,12,06,20,15,7.40
2020,12,06,20,16,7.30
2020,12,06,20,17,7.30
2020,12,06,20,18,7.30
2020,12,06,20,19,7.30